Simultaneous Nadir Overpasses (SNOs) Predictions

Prediction of SNOs between GOES-15 and TERRA Satellite Orbit:

Table of predicted SNOs for the next 14.0 days since TLE Epoch: 10/19/2013
Index Date Time (GOES-15) GOES-15 Lat,Lon TERRA Lat,Lon Distance(km) Time Diff (sec)
1 10/20/2013 07:21:46 0.35,-134.67 0.65,-133.40 145.30 80
2 10/20/2013 19:43:01 -0.34,-134.64 0.47,-138.55 444.83 80
3 10/22/2013 07:09:35 0.35,-134.58 1.25,-130.44 470.95 80
4 10/22/2013 19:30:50 -0.34,-134.54 -0.12,-135.59 119.27 80
5 10/24/2013 19:21:20 -0.33,-134.44 -0.69,-132.63 205.22 80
6 10/25/2013 07:42:45 0.32,-134.44 -0.42,-137.83 386.06 80
7 10/27/2013 07:30:37 0.32,-134.33 0.19,-134.88 62.97 80
8 10/29/2013 07:15:50 0.32,-134.22 0.78,-131.94 259.05 80
9 10/29/2013 19:37:07
